Simultaneous Nadir Overpasses (SNOs) Predictions

Prediction of SNOs between METOP-B and NOAA-19 Satellite Orbit:

Table of predicted SNOs for the next 14.0 days since TLE Epoch: 6/30/2017
Index Date (METOP-B) Time (METOP-B) Lat,Lon (METOP-B) SZA (METOP-B ) Date (NOAA-19) Time (NOAA-19) Lat,Lon (NOAA-19) SZA (NOAA-19 ) Distance(km) Time Diff (sec)
1 07/06/2017 03:10:14 77.32, 137.57 54.61 07/06/2017 03:09:05 77.31, 137.64 54.60 2.03 69
2 07/06/2017 04:00:55 -77.33, -55.06 125.38 07/06/2017 04:00:02 -77.33, -55.17 125.38 2.58 53
3 07/06/2017 04:51:36 77.30, 112.15 54.60 07/06/2017 04:51:06 77.29, 112.25 54.59 2.93 30
4 07/06/2017 05:42:17 -77.31, -80.49 125.39 07/06/2017 05:42:03 -77.31, -80.57 125.40 1.90 14
5 07/06/2017 06:32:58 77.28, 86.72 54.59 07/06/2017 06:33:08 77.31, 86.66 54.61 3.06 10
6 07/06/2017 07:23:39 -77.29,-105.92 125.41 07/06/2017 07:24:04 -77.28,-105.96 125.41 1.38 25
7 07/06/2017 08:14:20 77.26, 61.29 54.57 07/06/2017 08:15:09 77.28, 61.27 54.60 2.41 49
8 07/06/2017 09:05:01 -77.27,-131.34 125.42 07/06/2017 09:06:05 -77.26,-131.36 125.43 1.22 64




NCC Satellite Simultaneous Nadir Overpasses (SNOs) Prediction Service
